sat.trackr.live / text

‹ back to catalog

STARLINK-35838

NORAD 66836 · 2025-280R

PAYLOAD ACTIVE UNKNOWN

§ Identity

Operator
Country
US
Launch date
2025-12-02
Launch site
AFWTR
Launch vehicle
Mass (kg)
RCS (m²)

Purposes: comms

External: N2YO · Heavens-Above · Gunter

§ Orbital elements

Epoch: 2026-09-20T12:46:50.935872Z

Period
96.11 min
Inclination
69.9994°
Eccentricity
0.0003425
Mean motion
14.98347306 rev/d
Perigee alt
569.6 km
Apogee alt
574.4 km
Semi-major
6,950.1 km
B*
2.6704e-4
RAAN
203.0973°
Arg perigee
255.9308°
Mean anomaly
104.1470°
Rev number
4,526

§ Raw data

STARLINK-358381 66836U 25280R   26263.53253398  .00003096  00000+0  26704-3 0  99922 66836  69.9994 203.0973 0003425 255.9308 104.1470 14.98347306 45266

JSON: /api/v1/satellites/66836 · /tle

For live sub-satellite position, see the globe view (requires WebGL).

§ Visibility from observer

Set your observer location to see the next 7 days of passes ≥ 10°. The values pass through the URL so the page stays shareable.

No JS? Fill the form by hand. The geolocation button needs JavaScript.